Tracking 17844 objects as of 27-August-2016
HD Live streaming from Space Station
objects crossing your sky now

AMC-5 (GE-5)

Track AMC-5 (GE-5) now!
AMC-5 (GE-5) is classified as:


NORAD ID: 25516
Int'l Code: 1998-063B
Perigee: 36,048.4 km
Apogee: 36,068.6 km
Inclination: 4.9 °
Period: 1,449.6 minutes
Semi major axis: 42429 km
RCS: 9.3322 m2 (large)
Launch date: October 28, 1998
Source: SOCIETE EUROPEENNE DES SATELLITES (SES)
Launch site: FRENCH GUIANA (FRGUI)

Broadband internet, business television; 16 Ku-band; CONUS
Your satellite tracking list
Your tracking list is empty





NASA's NSSDC Master Catalog

Two Line Element Set (TLE):
1 25516U 98063B   16240.40144499 -.00000286  00000-0  00000+0 0  9999
2 25516   4.8506  62.2916 0002390 105.1340 270.7820  0.99334719 65280
Source of the keplerian elements: AFSPC

N2YO: 504